Flag for Belgium Weather past 2 weeks in Antwerp, Belgium

Now
64 °F

Partly sunny.


Feels Like: 64 °F
Forecast: 63 / 78 °F
Wind: 1 mph from North

Location: Antwerp / Deurne

Current Time: Jul 26, 2014 at 8:09:20 AM

Latest Report: Jul 26, 2014 at 7:20 AM


Visibility: 4 mi

Pressure: 29.95 "Hg

Humidity: 88%

Dew point: 61 °F

Location of AntwerpLocation

Historic Weather in Antwerp — Graph

°F

Antwerp temperature yesterday

Maximum temperature yesterday: 73 °F (at 11:20 AM)
Minimum temperature yesterday: 61 °F (at 4:20 AM)
Average temperature yesterday: 68 °F

Past Weeks' High & Low Weather Summary

 TemperatureHumidityPressure
High91 °F (Jul 19, 1:50 PM)100% (Jul 16, 4:20 AM)30.18 "Hg (Jul 16, 4:20 AM)
Low55 °F (Jul 16, 4:20 AM)30% (Jul 19, 2:50 PM)29.74 "Hg (Jul 13, 2:50 PM)
Average70 °F73%29.98 "Hg
* Reported Jul 11 6:20 AM — Jul 26 6:50 AM, Antwerp, Weather by CustomWeather, © 2014

Note: Actual official high and low records may vary slightly from our data, if they occured in-between our weather recording intervals... More about our weather records

Advertising

Antwerp weather history for previous 24 hours

 ConditionsComfort  
Time TempWeatherWind HumidityBarometerVisibility
6:50 AM
Jul 26
63 °FPassing clouds.1 mph94%29.95 "Hg4 mi
6:20 AM63 °FOvercast.2 mph88%29.95 "Hg4 mi
5:50 AM63 °FPassing clouds.3 mph88%29.95 "Hg6 mi
5:20 AM64 °FOvercast.3 mph88%29.95 "Hg6 mi
4:50 AM64 °FOvercast.1 mph83%29.95 "HgN/A
4:20 AM63 °FOvercast.2 mph88%29.92 "HgN/A
3:50 AM64 °FOvercast.3 mph88%29.95 "HgN/A
3:20 AM64 °FOvercast.3 mph83%29.95 "HgN/A
2:50 AM64 °FMostly cloudy.5 mph88%29.95 "HgN/A
2:20 AM64 °FOvercast.3 mph88%29.95 "HgN/A
1:50 AM66 °FOvercast.3 mph78%29.95 "HgN/A
1:20 AM66 °FOvercast.5 mph78%29.95 "HgN/A
12:50 AM66 °FOvercast.5 mph78%29.95 "HgN/A
12:20 AM66 °FOvercast.6 mph78%29.95 "HgN/A
11:50 PM
Jul 25
66 °FOvercast.6 mph78%29.95 "HgN/A
11:20 PM66 °FOvercast.6 mph78%29.95 "HgN/A
10:50 PM66 °FPassing clouds.7 mph78%29.95 "HgN/A
10:20 PM66 °FPartly sunny.3 mph78%29.95 "HgN/A
9:50 PM68 °FPartly sunny.5 mph73%29.95 "HgN/A
9:20 PM68 °FPartly sunny.6 mph73%29.95 "HgN/A
8:50 PM68 °FPartly sunny.7 mph73%29.95 "HgN/A
8:20 PM68 °FPartly sunny.8 mph73%29.95 "HgN/A
7:50 PM68 °FBroken clouds.6 mph78%29.95 "HgN/A
7:20 PM68 °FScattered clouds.9 mph78%29.95 "HgN/A
6:50 PM70 °FScattered clouds.8 mph69%29.95 "HgN/A
6:20 PM70 °FScattered clouds.12 mph69%29.95 "HgN/A
5:50 PM70 °FPassing clouds.10 mph69%29.95 "HgN/A
5:20 PM70 °FPassing clouds.10 mph69%29.95 "HgN/A
4:50 PM72 °FSprinkles. Passing clouds.12 mph65%29.95 "HgN/A
4:20 PM72 °FScattered clouds.12 mph61%29.95 "HgN/A
3:50 PM72 °FScattered clouds.10 mph61%29.95 "HgN/A
3:20 PM72 °FPassing clouds.12 mph61%29.98 "HgN/A
2:50 PM73 °FPassing clouds.14 mph61%29.98 "HgN/A
2:20 PM72 °FPassing clouds.12 mph61%29.98 "HgN/A
1:50 PM72 °FScattered clouds.14 mph61%29.98 "HgN/A
1:20 PM73 °FScattered clouds.10 mph57%29.98 "HgN/A
12:50 PM73 °FScattered clouds.12 mph53%29.98 "HgN/A
12:20 PM73 °FScattered clouds.13 mph57%29.98 "HgN/A
11:50 AM72 °FScattered clouds.12 mph57%29.98 "HgN/A
11:20 AM73 °FPassing clouds.9 mph57%29.98 "HgN/A
10:50 AM72 °FPassing clouds.9 mph61%29.98 "HgN/A
10:20 AM70 °FPassing clouds.10 mph64%29.98 "HgN/A
9:50 AM70 °FPassing clouds.9 mph69%29.98 "HgN/A
9:20 AM68 °FSunny.8 mph69%29.98 "Hg10 mi
8:50 AM66 °FSunny.10 mph73%29.98 "Hg10 mi
8:20 AM64 °FSunny.8 mph78%29.98 "Hg10 mi
Weather by CustomWeather, © 2014

See weather overviewHow to use our weather pages